Hourly Data Report for July 25, 2019

TORONTO CITY
ONTARIO
Current Station Operator: ECCC - MSC

43°40'00.000" N
79°24'00.000" W
112.50 m
6158355
71508
XTO

Download Data

Hourly Data (July 2019)
Hourly Data Report for July 25, 2019
TIME
LST
Temp Definition
°C
Dew Point Definition
°C
Rel Hum Definition
%
Precip. Amount Definition
mm

Wind Dir Definition
10's deg

Wind Spd Definition
km/h
Visibility Definition
km
Stn Press Definition
kPa
Hmdx Definition


Wind Chill Definition


Weather Definition


00:00 19.3 10.9 58 0.0       100.51     LegendNANA
01:00 18.6 11.9 65 0.0       100.51     LegendNANA
02:00 18.0 12.0 68 0.0       100.51     LegendNANA
03:00 17.4 11.2 67 0.0       100.53     LegendNANA
04:00 16.9 11.6 71 0.0       100.56     LegendNANA
05:00 17.0 11.3 69 0.0       100.61     LegendNANA
06:00 17.6 11.1 66 0.0       100.67     LegendNANA
07:00 19.6 11.1 58 0.0       100.72     LegendNANA
08:00 21.9 9.6 45 0.0       100.75     LegendNANA
09:00 24.1 10.4 42 0.0       100.74 26   LegendNANA
10:00 25.4 10.2 38 0.0       100.77 27   LegendNANA
11:00 25.5 9.1 36 0.0       100.77 26   LegendNANA
12:00 26.0 11.7 41 0.0       100.73 28   LegendNANA
13:00 26.9 12.2 40 0.0       100.70 29   LegendNANA
14:00 27.0 11.4 38 0.0       100.67 29   LegendNANA
15:00 27.2 13.0 41 0.0       100.64 30   LegendNANA
16:00 27.2 13.6 43 0.0       100.60 30   LegendNANA
17:00 23.1 17.6 71 1.0       100.65 29   LegendNANA
18:00 23.9 16.6 64 0.0       100.64 29   LegendNANA
19:00 23.8 15.4 59 0.0       100.67 28   LegendNANA
20:00 24.0 15.2 58 0.0       100.69 28   LegendNANA
21:00 23.0 15.8 64 0.0       100.76 27   LegendNANA
22:00 22.5 15.8 66 0.0       100.77 27   LegendNANA
23:00 21.5 15.9 70 0.0       100.80 26   LegendNANA

Notes on Data Quality.

Legend

  • E = Estimated
  • M = Missing
  • NA = Not Available*
  • [empty] = Indicates an unobserved value
Date modified: